Change the Weather History Date:

Monday, October 8, 2012

  Actual Average Record
Temperature  
Mean Temperature 52 °F -  
Max Temperature 57 °F 64 °F 82 °F (1996)
Min Temperature 46 °F 47 °F 29 °F (1949)
Degree Days  
Heating Degree Days 14    
Growing Degree Days 2 (Base 50)    
Moisture  
Dew Point 41 °F    
Average Humidity 69    
Maximum Humidity 81    
Minimum Humidity 51    
Precipitation  
Precipitation 0.00 in - - ()
Sea Level Pressure  
Sea Level Pressure 29.98 in    
Wind  
Wind Speed 3 mph (SSE)    
Max Wind Speed 15 mph    
Max Gust Speed 22 mph    
Visibility 10 miles    
Events      
Averages and records for this station are not official NWS values.
T = Trace of Precipitation, MM = Missing Value Source: NWS Daily Summary

Daily Weather History Graph

Daily Weather History Graph

Search for Another Location

Airport or City:

Trip Planner

Search our weather history database for the weather conditions in past years. The results will help you decide how hot, cold, wet, or windy it might be!

Date:

Astronomy

Oct. 08, 2012 Rise Set
Actual Time 7:06 AM PDT 6:33 PM PDT
Civil Twilight 6:39 AM PDT 7:00 PM PDT
Nautical Twilight 6:08 AM PDT 7:31 PM PDT
Astronomical Twilight 5:37 AM PDT 8:02 PM PDT
Moon No Moon Rise 2:24 PM PDT (10/8)
Length of Visible Light 12h 20m
Length of Day
11h 27m
Last Quarter, 45% of the Moon is Illuminated
Oct 8
Last Quarter
Oct 15
New
Oct 21
First Quarter
Oct 29
Full
Nov 6
Last Quarter

Hourly Weather History & Observations

Time (PDT) Temp. Windchill Dew Point Humidity Pressure Visibility Wind Dir Wind Speed Gust Speed Precip Events Conditions
12:52 AM 51.1 °F - 44.1 °F 77% 29.94 in 10.0 mi Calm Calm - N/A   Clear
1:52 AM 51.1 °F - 44.1 °F 77% 29.93 in 10.0 mi Calm Calm - N/A   Clear
2:52 AM 51.1 °F - 44.1 °F 77% 29.91 in 10.0 mi Calm Calm - N/A   Clear
3:52 AM 51.1 °F - 44.1 °F 77% 29.91 in 10.0 mi Calm Calm - N/A   Clear
4:52 AM 51.1 °F - 42.1 °F 71% 29.91 in 10.0 mi Calm Calm - N/A   Clear
5:52 AM 50.0 °F - 41.0 °F 71% 29.92 in 10.0 mi East 3.5 mph - N/A   Clear
6:52 AM 48.9 °F - 39.0 °F 69% 29.95 in 10.0 mi Calm Calm - N/A   Clear
7:52 AM 52.0 °F - 39.0 °F 61% 29.94 in 10.0 mi SE 4.6 mph - N/A   Clear
8:52 AM 54.0 °F - 39.0 °F 57% 29.95 in 10.0 mi Variable 5.8 mph - N/A   Clear
9:52 AM 54.0 °F - 39.0 °F 57% 29.96 in 10.0 mi South 10.4 mph - N/A   Clear
10:52 AM 55.0 °F - 42.1 °F 62% 29.96 in 10.0 mi South 12.7 mph 19.6 mph N/A   Clear
11:52 AM 55.0 °F - 43.0 °F 64% 29.96 in 10.0 mi South 10.4 mph 19.6 mph N/A   Scattered Clouds
12:16 PM 55.4 °F - 42.8 °F 63% 30.11 in 10.0 mi Variable 6.9 mph - N/A   Mostly Cloudy
12:27 PM 55.4 °F - 42.8 °F 63% 30.11 in 10.0 mi SSE 9.2 mph - N/A   Scattered Clouds
12:52 PM 55.9 °F - 42.1 °F 60% 29.96 in 10.0 mi South 11.5 mph - N/A   Partly Cloudy
1:52 PM 57.0 °F - 41.0 °F 55% 29.95 in 10.0 mi South 15.0 mph 21.9 mph N/A   Scattered Clouds
2:52 PM 57.9 °F - 39.9 °F 51% 29.94 in 10.0 mi South 12.7 mph 20.7 mph N/A   Partly Cloudy
3:52 PM 55.9 °F - 39.9 °F 55% 29.94 in 10.0 mi South 6.9 mph - N/A   Scattered Clouds
4:52 PM 55.0 °F - 42.1 °F 62% 29.95 in 10.0 mi Variable 6.9 mph - N/A   Clear
5:52 PM 52.0 °F - 42.1 °F 69% 29.96 in 10.0 mi SSW 9.2 mph - N/A   Clear
6:52 PM 48.9 °F - 41.0 °F 74% 29.98 in 10.0 mi Calm Calm - N/A   Partly Cloudy
7:04 PM 48.2 °F - 41.0 °F 76% 30.09 in 10.0 mi Calm Calm - N/A   Mostly Cloudy
7:42 PM 46.4 °F - 41.0 °F 81% 30.09 in 10.0 mi Calm Calm - N/A   Partly Cloudy
7:52 PM 46.9 °F - 41.0 °F 80% 29.98 in 10.0 mi Calm Calm - N/A   Partly Cloudy
8:52 PM 46.9 °F - 41.0 °F 80% 29.98 in 10.0 mi Calm Calm - N/A   Mostly Cloudy
9:52 PM 46.9 °F - 39.9 °F 77% 29.99 in 10.0 mi Calm Calm - N/A   Overcast
10:31 PM 46.4 °F 45.2 °F 39.2 °F 76% 30.10 in 10.0 mi East 3.5 mph - N/A   Scattered Clouds
10:52 PM 48.0 °F - 41.0 °F 77% 29.97 in 10.0 mi Calm Calm - N/A   Clear
11:28 PM 48.2 °F - 41.0 °F 76% 30.11 in 10.0 mi Calm Calm - N/A   Mostly Cloudy
11:52 PM 50.0 °F - 42.1 °F 74% 29.96 in 10.0 mi SSE 5.8 mph - N/A   Overcast